sat.trackr.live / text

‹ back to catalog

STARLINK-35461

NORAD 66088 · 2025-236C

PAYLOAD ACTIVE UNKNOWN

§ Identity

Operator
Country
US
Launch date
2025-10-19
Launch site
AFWTR
Launch vehicle
Mass (kg)
RCS (m²)

Purposes: comms

External: N2YO · Heavens-Above · Gunter

§ Orbital elements

Epoch: 2026-05-25T03:32:28.130784Z

Period
94.10 min
Inclination
53.1600°
Eccentricity
0.0001018
Mean motion
15.30212037 rev/d
Perigee alt
474.5 km
Apogee alt
475.9 km
Semi-major
6,853.3 km
B*
6.3540e-4
RAAN
108.5146°
Arg perigee
109.1825°
Mean anomaly
250.9285°
Rev number
3,459

§ Raw data

STARLINK-354611 66088U 25236C   26145.14754781  .00018513  00000+0  63540-3 0  99992 66088  53.1600 108.5146 0001018 109.1825 250.9285 15.30212037 34592

JSON: /api/v1/satellites/66088 · /tle

For live sub-satellite position, see the globe view (requires WebGL).

§ Visibility from observer

Set your observer location to see the next 7 days of passes ≥ 10°. The values pass through the URL so the page stays shareable.

No JS? Fill the form by hand. The geolocation button needs JavaScript.